Tracking 18793 objects as of 22-September-2017
HD Live streaming from Space Station
objects crossing your sky now

COSMOS 909

Track COSMOS 909 now!
10-day predictions
COSMOS 909 is classified as:


NORAD ID: 10010
Int'l Code: 1977-036A
Perigee: 991.7 km
Apogee: 2,118.3 km
Inclination: 65.9 °
Period: 117.0 minutes
Semi major axis: 7925 km
RCS: 1.4527 m2 (large)
Launch date: May 19, 1977
Source: Commonwealth of Independent States (former USSR) (CIS)
Launch site: PLESETSK MISSILE AND SPACE COMPLEX (PKMTR)
aabbcc
Your satellite tracking list
Your tracking list is empty





NASA's NSSDC Master Catalog

Two Line Element Set (TLE):
1 10010U 77036A   17264.90146914 -.00000079 +00000-0 -87873-4 0  9994
2 10010 065.8630 212.6275 0710679 216.6629 138.3683 12.30334959792828
Source of the keplerian elements: AFSPC